Location: Unspecified
(35.6961°N, 0.0000°E)
Time: 13:56:22
(UTC+00:00)

Vanguard 3 - Pass Details

Date: 31 May 2019
Orbit: 508 x 3263 km, 33.3° (Epoch: 24 June)

Event Time Altitude Azimuth Distance (km) Brightness Sun altitude
Rises 01:01:03 0° 275° (W) 4,415 10.8 -30.5°
Enters shadow 01:03:16 - 267° (W) 3,915 10.4 -30.4°
Reaches altitude 10° 01:03:58 10° 264° (W) 3,777 - -30.3°
Maximum altitude 01:12:50 32° 207° (SSW) 3,271 - -29.8°
Exits shadow 01:25:43 11° 154° (SSE) 5,611 11.0 -28.8°
Drops below altitude 10° 01:26:16 10° 153° (SSE) 5,736 11.1 -28.7°
Sets 01:32:07 0° 145° (SE) 7,027 11.7 -28.3°
